Location: Ceske Budejovice
(48.9830°N, 14.4670°E)
Time: 14:08:14
(UTC+01:00)

POLYITAN 1 - Visible Passes

Search period start: 14 February 2026 00:00
Search period end: 24 February 2026 00:00
Orbit: 476 x 485 km, 98.1° (Epoch: 13 February)

Date Brightness Start Highest point End Pass type
(mag) Time Alt. Az. Time Alt. Az. Time Alt. Az.
14 Feb ? 05:51:35 10° ENE 05:53:38 14° E 05:55:40 10° SE visible
14 Feb ? 18:02:28 10° S 18:06:00 55° WSW 18:09:33 10° NNW visible
15 Feb ? 19:13:51 10° W 19:14:01 10° W 19:14:10 10° W visible
16 Feb ? 06:32:20 10° NNE 06:35:44 40° E 06:39:06 10° S visible
16 Feb ? 18:45:22 10° SW 18:48:00 19° W 18:50:40 10° NW visible
17 Feb ? 06:07:04 10° NE 06:09:49 21° E 06:12:33 10° SE visible
17 Feb ? 18:18:43 10° SSW 18:22:03 37° W 18:25:25 10° NNW visible
18 Feb ? 05:42:50 10° ENE 05:43:46 11° E 05:44:42 10° ESE visible
18 Feb ? 17:52:36 10° S 17:56:11 77° WSW 17:59:47 10° NNW visible
19 Feb ? 19:02:05 10° WSW 19:03:56 13° W 19:05:48 10° WNW visible
20 Feb ? 06:22:30 10° NE 06:25:41 29° E 06:28:49 10° SSE visible
20 Feb ? 18:34:49 10° SSW 18:37:51 25° W 18:40:53 10° NW visible
21 Feb ? 05:57:22 10° NE 05:59:35 16° E 06:01:47 10° SE visible
21 Feb ? 18:08:19 10° S 18:11:49 51° W 18:15:19 10° NNW visible
23 Feb ? 18:50:50 10° SW 18:53:21 18° W 18:55:54 10° NW visible
